Regional Weather Roundup
Issued by NWS

Home | Current Version | Previous Version | Text Only | Print | Product List | Glossary Off
Versions: 1 2 3 4 5 6 7 8 9 10 11 12 13 14 15 16 17 18 19 20 21 22 23 24 25 26 27 28 29 30 31 32 33 34 35 36 37 38 39 40 41 42 43 44 45 46 47 48 49 50

000
ASUS45 KBOI 200710
RWRID
WEATHER ROUNDUP FOR IDAHO
NATIONAL WEATHER SERVICE BOISE ID
100 AM MDT WED AUG 20 2014

NOTE: "FAIR" INDICATES FEW OR NO CLOUDS BELOW 12000 FEET
WITH NO SIGNIFICANT WEATHER AND/OR OBSTRUCTIONS TO VISIBILITY

IDZ012-014-200800-
SOUTHWEST IDAHO


CITY           SKY/WX    TMP DP  RH WIND       PRES   REMARKS
BOISE          MOCLDY    74  44  34 NE3       29.78S
CALDWELL       MOCLDY    68  48  49 N3        29.79R
MOUNTAIN HOME  MOCLDY    71  47  42 NE7       29.77F
$$

IDZ016-017-200800-
SOUTHCENTRAL IDAHO


CITY           SKY/WX    TMP DP  RH WIND       PRES   REMARKS
BURLEY         PTCLDY    62  51  67 NE7       29.87S
JEROME         MOCLDY    63  51  65 E12       29.89R
TWIN FALLS     MOCLDY    63  49  60 NE3       29.89R
$$

IDZ019>023-200800-
SOUTHEAST IDAHO


CITY           SKY/WX    TMP DP  RH WIND       PRES   REMARKS
IDAHO FALLS    CLOUDY    59  54  83 E5        29.94F
POCATELLO      PTCLDY    61  55  81 E8        29.92S
REXBURG        CLOUDY    55  52  89 CALM      29.95F
$$

IDZ006-010-011-018-031-032-200800-
CENTRAL IDAHO MOUNTAINS


CITY           SKY/WX    TMP DP  RH WIND       PRES   REMARKS
MCCALL         CLOUDY    65  41  41 N8        29.89R
HAILEY         MOCLDY    55  52  88 W6        29.98R
STANLEY          N/A     54  43  66 E7        30.01S
SALMON         CLOUDY    57  52  82 S6        29.88S
CHALLIS        LGT RAIN  57  52  83 W9        29.95R
$$

IDZ002-004-006-007-026-200800-
NORTHERN IDAHO


CITY           SKY/WX    TMP DP  RH WIND       PRES   REMARKS
LEWISTON       CLEAR     77  45  32 SW9       29.68S
LOWELL           N/A     63  62  97 CALM      29.77R
COEUR D`ALENE  PTCLDY    61  55  82 E8        29.73R
MULLAN PASS    CLEAR     54  43  66 S8        29.92S
$$


USA.gov is the U.S. government's official web portal to all federal, state and local government web resources and services.